Location: Joplin, MO
(37.0842°N, 94.5133°W)
Time: 21:17:55
(UTC+02:00)

Transit 2A Rocket - Pass Details

Date: 28 March 2023
Orbit: 584 x 914 km, 66.7° (Epoch: 06 June)

Event Time Altitude Azimuth Distance (km) Brightness Sun altitude
Rises 19:50:50 0° 245° (WSW) 3,256 8.3 55.2°
Reaches altitude 10° 19:53:40 10° 260° (W) 2,389 7.7 55.3°
Maximum altitude 19:57:59 23° 312° (NW) 1,737 6.8 55.5°
Drops below altitude 10° 20:02:34 10° 3° (N) 2,543 7.5 55.7°
Sets 20:05:42 0° 18° (NNE) 3,520 8.1 55.8°
